RH
15 18 24 27 29 34 32 24 18 18 16 31 31 37 88 93 84 82 90 79 78 96 96 80 65 56 46 61 55 46 45 50 49 35 16 14 15 21 30 48 49 40 26 24 23 39 58 69 80
17 25 33 31 35 36 33 22 20 29 34 33 33 52 71 94 92 89 85 83 79 75 83 80 71 64 50 60 78 49 47 54 45 21 11 12 22 24 42 52 43 25 24 23 27 50 63 65 65
18 26 30 35 39 38 32 20 16 45 34 31 36 57 64 57 74 74 57 51 59 58 65 78 80 69 47 51 82 59 51 56 34 13 16 33 30 38 48 44 25 25 23 24 31 56 65 67 63
18 22 24 25 26 22 21 16 14 45 50 34 43 69 61 55 61 67 76 68 64 37 57 70 73 72 58 68 76 86 57 54 18 62 53 35 42 47 43 25 26 25 24 23 35 61 64 62 62
25 28 31 29 26 20 16 13 12 34 45 45 41 68 60 55 51 60 71 69 76 66 55 65 88 81 98 94 96 93 69 40 18 20 35 44 48 44 27 28 27 24 22 22 41 58 58 56 59
27 24 32 34 27 19 15 18 30 32 45 46 51 67 66 46 46 49 74 74 72 82 73 74 100 86 72 94 82 93 67 25 63 44 56 46 48 34 30 32 29 25 22 20 36 53 56 61 64
32 31 31 27 24 17 20 18 28 33 44 59 46 66 46 47 58 68 99 75 87 100 100 83 95 78 78 68 92 95 87 63 55 76 79 60 44 33 34 36 31 25 22 20 24 50 53 57 58
22 27 27 27 22 19 13 19 22 30 70 63 63 81 59 42 56 70 97 100 100 99 98 100 79 66 77 67 77 99 92 88 80 78 85 59 41 37 38 41 38 31 24 22 20 31 50 54 53
20 28 31 26 18 16 13 21 34 50 48 69 67 65 63 64 64 71 98 100 100 100 100 96 88 76 77 61 76 78 77 79 82 86 82 60 42 40 42 46 48 44 30 24 22 22 38 51 49
21 29 25 18 14 15 15 23 28 56 80 81 92 75 69 77 81 94 100 98 100 99 100 99 84 69 78 92 88 87 75 76 68 72 74 63 43 41 46 50 53 55 46 28 25 25 32 39 42
20 26 19 17 14 12 13 44 38 66 88 77 67 82 94 98 89 96 99 100 98 100 100 99 89 80 87 84 85 83 77 78 76 63 58 50 44 42 47 52 55 56 57 46 37 34 31 33 32
18 16 15 14 13 11 12 42 57 60 49 47 47 65 92 89 98 100 98 99 99 99 100 100 94 88 82 88 79 76 81 74 76 75 63 42 41 44 47 51 55 58 60 57 57 53 34 32 34
18 16 14 15 15 12 15 48 61 61 54 74 83 88 93 98 99 98 98 100 99 99 100 100 90 88 83 81 88 83 80 91 74 55 55 44 44 45 47 50 56 58 59 63 63 64 58 35 36
16 19 20 19 16 14 22 56 47 46 55 77 87 84 86 86 88 97 99 99 100 100 100 100 98 85 79 74 70 61 71 56 54 64 55 45 43 43 47 49 52 55 59 62 64 67 69 49 36
20 25 24 20 17 17 21 37 56 42 54 76 74 79 82 84 82 86 89 99 100 100 99 100 100 100 89 84 73 73 83 60 66 52 49 49 47 40 42 38 47 55 59 64 65 67 69 60 42
25 26 29 20 17 16 17 25 47 48 56 76 83 82 63 80 83 85 89 100 99 100 99 99 100 100 100 88 70 66 76 66 53 49 53 58 49 44 40 37 40 53 62 65 67 65 67 69 65
32 37 32 28 19 19 21 32 49 63 67 76 79 72 62 82 80 88 95 89 99 99 100 100 100 100 100 84 62 78 76 67 47 49 54 58 58 49 39 37 44 57 63 66 69 67 68 72 69
42 36 32 32 23 20 30 39 55 62 66 79 76 80 79 82 75 86 94 95 96 100 100 99 94 94 94 68 76 84 71 59 56 57 78 68 58 43 37 38 43 56 60 72 70 71 72 74 71
31 32 34 27 20 22 29 43 54 56 61 68 72 76 78 77 79 74 84 90 88 99 99 100 98 93 92 68 76 73 63 67 72 75 66 51 49 39 37 41 49 62 64 66 70 74 76 76 71
31 34 34 26 21 21 21 22 50 60 56 61 65 66 60 81 86 69 76 80 86 95 99 97 97 91 86 67 60 63 62 68 64 54 45 42 39 38 42 42 42 40 55 70 77 80 80 79 74
30 33 32 28 23 25 23 29 52 45 51 56 58 42 57 72 80 69 70 68 68 83 94 86 77 71 72 62 67 64 68 66 58 53 48 40 41 49 49 48 41 36 49 70 84 87 86 83 79
35 25 25 25 31 38 25 42 45 42 46 49 54 51 52 74 74 67 60 61 60 62 69 63 62 59 56 53 51 47 52 55 60 56 52 45 48 45 53 64 65 65 70 74 81 88 87 88 86
31 27 27 27 32 32 33 46 42 36 38 41 48 55 57 61 70 67 57 48 44 57 62 62 59 58 53 55 58 72 73 71 63 61 55 48 46 55 61 64 74 77 78 77 77 74 85 91 88
24 26 28 35 38 49 36 47 49 44 34 33 44 50 56 66 71 61 56 54 52 49 50 60 71 74 72 68 69 76 80 72 63 53 52 50 44 48 62 74 75 82 83 84 80 75 84 94 93
26 32 48 52 64 61 44 51 42 29 32 29 42 48 56 66 74 67 64 62 58 60 58 58 65 64 60 66 72 67 66 52 38 41 48 54 55 58 61 67 70 77 79 80 84 92 99 98 99
30 34 57 53 68 63 58 52 41 28 25 22 28 44 53 65 68 61 58 56 56 57 60 64 66 60 55 52 55 49 58 60 66 66 63 57 56 59 60 65 67 68 77 87 91 97 98 100 99
29 39 34 71 74 82 65 56 35 25 23 22 24 38 48 55 60 55 55 55 53 55 54 45 43 54 55 52 59 53 56 68 69 73 70 64 60 57 62 62 69 73 78 82 92 95 99 100 99
28 31 57 65 79 83 67 60 50 29 24 20 29 43 40 47 55 54 54 49 50 49 49 52 47 43 37 46 54 65 65 66 67 70 71 69 61 64 58 66 75 82 83 87 92 100 100 99 100
31 33 42 53 68 80 74 57 43 38 26 23 23 26 34 37 41 50 54 50 45 48 54 51 54 53 51 54 57 64 64 66 67 67 68 76 75 80 82 75 70 90 91 95 96 98 100 100 99
29 28 37 69 73 72 70 55 30 35 23 24 24 22 22 23 27 33 36 40 49 51 53 57 53 56 69 76 80 84 82 83 77 78 84 85 86 78 73 93 95 100 98 100 100 96 100 100 100
Wind_Speed
2 3 3 2 4 4 4 7 3 10 6 3 9 6 14 16 4 4 11 6 7 21 22 26 31 33 29 21 27 30 30 29 26 25 27 29 30 31 33 33 32 30 29 28 27 28 27 25 23
3 3 2 1 4 0 5 6 3 5 6 2 9 8 7 4 8 7 6 6 11 15 18 28 33 34 29 15 25 32 32 30 28 27 32 34 34 34 35 33 31 30 29 29 29 29 26 22 20
2 3 1 3 3 4 4 3 5 6 5 5 7 8 5 3 4 5 3 5 13 16 16 23 29 25 22 22 38 36 36 32 29 33 34 35 36 37 36 34 31 29 30 30 30 29 27 21 20
2 1 2 3 7 11 7 21 24 7 9 5 12 6 2 1 3 6 7 9 8 9 20 36 29 31 22 20 39 38 40 36 35 35 34 36 36 37 35 34 31 30 30 30 31 30 25 18 17
0 1 3 2 8 6 12 23 22 8 3 4 3 4 2 3 7 10 11 9 7 6 6 17 27 28 23 8 39 45 44 38 39 36 35 36 37 37 35 32 30 29 29 30 32 31 23 17 17
0 2 2 3 8 6 11 10 10 4 5 3 5 6 4 4 6 7 6 6 9 12 9 15 31 30 15 21 14 47 41 42 41 40 38 38 38 37 35 32 30 29 28 29 30 29 24 17 17
6 3 4 4 14 14 6 10 2 5 5 5 7 5 4 7 11 5 0 7 5 10 15 17 25 13 4 7 7 47 37 44 44 39 38 39 39 37 34 31 28 27 27 27 27 28 26 20 14
4 5 3 6 10 12 15 4 4 5 8 4 4 2 6 9 9 5 6 5 3 9 12 12 11 10 9 7 3 28 35 31 40 39 38 37 36 35 33 30 28 25 25 25 25 25 25 21 15
3 2 5 7 5 8 21 4 13 17 15 6 2 2 7 9 6 4 3 6 5 10 11 14 16 15 21 19 29 24 32 28 33 37 36 36 36 34 30 28 26 24 23 23 23 23 22 21 14
5 3 8 7 9 8 4 1 2 5 6 3 4 3 4 5 5 4 2 7 7 8 10 13 14 11 13 17 29 39 41 39 29 31 34 34 34 32 30 27 25 23 21 21 21 21 20 19 13
4 7 11 23 27 27 7 3 4 15 2 8 10 6 4 3 1 6 3 5 9 8 11 13 15 16 22 36 37 41 43 40 32 32 29 29 31 31 29 27 24 21 19 19 16 15 15 15 11
3 14 18 26 33 19 3 10 3 5 10 11 8 10 13 5 6 7 3 6 8 10 13 20 19 23 27 34 40 40 42 43 39 39 35 30 32 31 27 25 22 20 18 16 14 12 12 11 10
6 10 20 20 25 11 2 4 6 9 14 6 10 9 11 9 6 7 6 9 10 11 18 22 20 25 28 32 34 42 43 37 38 39 34 32 32 29 26 24 22 18 16 12 11 10 9 9 8
12 14 17 21 21 14 4 4 2 13 10 11 13 9 9 8 6 9 10 13 14 15 22 23 24 26 28 28 38 45 38 37 37 35 34 32 28 26 25 21 19 16 13 12 10 8 7 8 8
8 9 10 13 10 9 7 3 6 5 13 18 13 12 12 9 7 10 11 12 13 12 17 24 26 27 30 35 41 41 38 38 35 35 32 28 26 22 19 18 18 16 13 12 10 8 8 8 7
6 4 4 7 4 18 4 13 5 14 18 15 14 15 9 10 8 11 11 13 16 16 19 24 28 29 32 36 42 42 38 36 35 33 29 25 22 21 19 17 15 16 15 11 10 9 8 7 6
2 5 6 10 12 9 7 6 5 18 18 18 20 17 13 14 12 15 14 13 15 19 24 25 24 28 33 41 43 39 39 34 35 32 28 27 23 18 16 16 15 15 15 13 11 11 9 8 8
6 4 5 7 12 4 1 4 9 23 17 18 21 16 17 19 16 18 15 15 14 17 25 22 21 29 35 42 40 38 37 33 32 30 26 23 20 18 19 18 16 17 18 17 15 14 13 13 13
5 6 8 13 21 5 7 6 15 13 18 15 20 19 20 22 18 15 14 16 19 22 27 25 27 29 37 44 38 39 40 35 29 26 25 25 23 21 21 18 19 20 21 19 17 18 19 19 18
11 12 15 15 14 3 4 5 8 12 16 24 28 25 21 23 23 21 19 19 22 25 29 29 30 33 41 46 44 42 36 32 28 25 27 27 26 25 24 24 25 23 22 22 22 22 23 22 22
15 13 13 16 5 5 2 3 3 11 10 18 27 29 23 27 30 28 27 26 24 28 33 31 36 39 44 45 40 38 31 27 30 29 31 31 29 26 25 26 27 25 25 25 24 24 25 25 24
12 12 14 6 2 4 3 5 5 5 10 11 25 30 33 30 34 31 31 30 30 34 36 37 41 41 45 42 43 40 40 38 36 34 30 32 31 28 27 26 25 25 26 27 27 26 24 26 27
12 13 9 6 4 1 4 2 6 4 8 12 16 30 35 38 42 39 36 34 31 36 39 40 40 39 40 41 41 38 39 36 33 31 31 33 31 30 29 30 28 28 27 29 29 28 26 25 29
16 7 1 5 2 3 3 5 5 5 6 5 19 31 38 42 46 42 36 34 34 37 37 39 40 40 40 41 41 38 38 39 37 34 33 34 34 35 33 32 31 30 30 31 30 31 27 25 28
14 5 1 3 3 6 1 3 8 9 8 10 20 31 39 46 47 47 43 41 41 44 43 41 42 41 39 40 39 39 40 40 37 34 35 34 35 37 36 32 33 34 32 28 27 28 27 27 30
8 8 5 5 4 4 4 6 6 7 19 20 29 41 43 43 46 49 48 46 44 44 44 44 44 42 40 39 40 40 41 42 41 37 35 38 38 38 34 35 34 33 31 29 25 26 27 30 32
5 5 8 7 2 2 4 7 9 3 2 6 13 29 37 42 45 50 49 49 47 45 45 44 43 42 41 41 41 43 45 46 44 43 45 39 39 38 37 34 36 37 33 28 26 24 29 30 28
8 7 4 1 5 3 5 5 5 1 3 3 6 18 31 39 45 50 51 50 49 48 46 44 44 45 44 44 45 46 46 46 47 48 44 45 44 41 39 37 33 39 38 33 27 26 27 28 22
1 3 3 5 6 4 3 5 6 7 7 8 8 21 31 37 38 41 46 50 50 51 51 50 49 47 48 47 46 47 47 48 49 51 49 42 42 37 34 35 36 44 41 31 28 26 29 22 20
7 11 9 5 5 5 3 5 3 9 7 7 12 22 23 22 22 31 43 44 46 50 51 54 52 51 46 41 36 32 40 43 50 49 48 40 29 31 35 38 40 39 31 31 25 26 27 25 21
Wind_Direction
255 254 318 355 49 68 270 269 210 303 306 346 26 61 103 54 351 141 85 71 190 174 174 180 179 170 168 184 187 178 173 171 165 161 154 150 146 142 136 134 132 130 128 127 126 121 114 113 115
199 242 348 47 97 1 267 251 313 292 306 45 37 60 50 120 105 120 220 309 185 191 189 177 183 172 178 215 216 184 179 176 169 162 156 151 147 143 139 136 134 132 129 128 126 123 118 113 109
222 244 321 120 129 189 244 258 215 210 121 153 127 76 131 158 129 159 42 5 189 212 206 207 202 211 234 238 209 190 182 176 167 160 154 148 144 141 140 136 135 132 128 126 126 123 118 117 109
162 149 194 88 259 253 268 284 294 197 206 89 128 83 119 269 257 256 304 290 191 237 267 236 227 221 247 232 222 201 181 175 165 151 150 147 144 141 139 136 133 129 127 126 129 128 125 128 116
232 115 47 359 259 271 268 274 246 230 114 69 133 127 208 299 300 318 305 257 228 197 255 230 218 204 134 40 225 197 184 168 161 157 153 149 145 143 138 134 131 130 127 127 130 130 128 131 127
71 84 56 265 278 273 278 242 198 114 134 111 89 122 244 261 287 332 291 253 218 211 199 210 166 156 243 284 324 186 183 164 158 153 152 149 146 141 136 132 130 128 126 127 132 131 120 115 118
146 80 234 259 283 304 262 269 152 107 139 57 129 133 239 305 270 340 23 266 183 195 195 199 190 229 212 275 149 175 163 156 154 150 150 150 146 140 136 132 129 125 124 126 133 136 129 115 125
202 117 254 240 278 283 299 263 211 80 55 71 153 240 300 314 299 294 151 236 154 161 184 204 198 184 183 156 277 123 139 161 149 150 152 146 142 140 137 132 127 123 123 125 128 139 144 136 133
210 71 263 259 229 256 295 273 78 95 104 76 354 238 286 292 280 247 167 183 170 138 145 136 145 150 181 218 177 173 135 152 155 151 149 147 144 141 136 131 128 126 125 126 130 137 147 150 153
139 145 241 234 265 267 298 258 159 93 89 85 127 163 231 281 303 337 96 189 228 194 159 152 153 138 162 176 160 152 153 148 158 151 152 149 145 142 139 134 133 131 130 130 135 139 145 144 152
221 220 266 279 267 272 235 360 122 138 42 207 188 177 203 238 252 275 252 195 207 199 189 187 163 139 143 144 148 149 150 146 156 159 154 150 149 149 147 144 142 138 136 140 138 135 133 129 129
250 271 272 274 281 266 293 143 93 186 202 155 177 160 164 195 221 253 241 202 194 185 182 165 162 155 156 154 153 154 153 151 159 163 159 166 159 158 151 152 147 148 144 145 139 130 132 128 129
192 264 285 294 296 290 215 123 170 178 155 153 160 152 159 167 209 228 235 211 194 188 183 176 164 162 160 164 162 154 149 161 166 167 167 170 165 161 160 156 156 154 157 149 142 141 137 139 144
281 285 295 305 292 290 119 153 37 211 195 185 173 166 167 154 212 236 227 214 200 193 192 184 166 163 159 163 157 155 158 164 166 171 173 173 168 170 166 162 161 167 168 161 159 146 153 158 159
307 319 316 296 301 292 113 137 229 190 186 186 176 169 167 167 217 248 242 221 216 210 198 191 179 178 179 168 162 159 165 169 171 172 173 173 173 177 165 178 174 176 181 174 175 176 171 172 176
338 332 319 292 350 284 176 259 184 189 176 187 187 188 168 188 220 247 245 226 219 209 196 193 191 186 180 174 166 166 169 172 174 176 177 179 181 179 181 189 187 189 196 192 193 197 191 190 190
303 247 268 302 285 259 159 242 209 185 182 189 198 190 183 190 214 240 236 226 220 208 192 183 183 181 178 173 171 172 172 175 178 181 185 186 187 181 197 202 198 203 208 213 214 217 221 231 229
213 216 253 265 299 133 150 193 191 196 191 199 209 193 189 201 213 229 224 210 209 203 195 191 189 177 179 173 170 172 172 175 184 188 187 187 190 196 212 214 210 216 219 222 227 229 234 239 236
264 275 271 282 279 233 217 150 195 196 207 200 211 192 198 214 213 219 204 200 196 194 193 198 186 176 177 174 173 175 179 183 190 195 196 201 205 213 221 226 223 224 226 231 234 235 236 233 226
244 261 268 273 259 163 205 250 169 182 205 197 210 208 198 206 198 197 190 192 196 195 195 196 190 181 177 174 176 181 184 188 197 200 209 211 214 220 227 232 234 234 232 231 232 236 241 238 229
243 239 258 247 279 324 229 327 175 207 201 198 218 218 205 209 198 190 185 185 187 192 192 190 178 175 175 179 183 184 184 193 204 211 218 217 220 224 230 234 238 241 240 242 242 247 248 242 234
254 240 248 250 189 242 117 257 253 224 214 209 200 206 210 210 211 195 186 186 187 181 180 179 179 181 179 183 188 192 196 205 209 216 218 221 227 232 233 235 239 241 244 244 246 246 247 242 243
239 248 217 205 214 134 316 105 257 195 228 203 200 199 207 213 210 203 194 189 187 183 178 181 182 184 188 191 190 201 207 212 217 221 226 230 232 234 236 238 240 244 247 251 251 249 246 244 244
246 226 23 33 66 299 241 171 258 221 212 200 188 199 200 204 208 209 206 197 193 192 191 190 192 194 196 199 205 211 214 220 223 223 226 230 234 235 237 242 245 249 253 256 258 254 249 248 255
231 97 319 330 343 238 242 234 240 267 241 186 187 196 193 202 202 203 206 204 201 198 199 201 202 204 206 208 212 217 223 227 230 229 226 227 230 233 234 238 243 248 254 256 260 251 249 253 256
204 160 161 203 217 264 311 247 250 239 255 218 187 192 192 194 199 205 209 209 209 208 208 209 210 212 213 216 218 220 222 225 229 232 235 234 236 238 239 239 245 249 249 253 255 249 249 254 258
213 161 178 109 35 59 245 293 296 346 2 202 199 183 189 192 196 207 213 214 215 214 215 215 217 221 223 223 221 223 226 228 231 236 239 243 244 249 246 249 252 252 247 250 251 252 250 252 267
180 165 94 36 147 248 270 249 240 291 184 236 153 172 186 191 198 207 212 218 220 221 222 222 222 223 225 225 224 226 228 233 236 238 241 241 242 248 247 243 250 255 249 242 248 245 252 255 257
262 187 114 125 135 176 267 257 225 216 195 188 182 185 199 197 200 208 212 220 225 227 225 226 225 227 228 229 230 231 233 234 239 240 241 241 239 244 237 243 252 253 248 239 242 244 247 245 251
287 229 173 145 178 175 224 271 240 213 209 170 196 169 164 169 194 214 225 227 226 228 230 230 232 231 227 228 227 233 246 252 248 245 235 237 256 233 244 252 240 246 247 244 237 248 239 243 248